Location: Bakov nad Jizerou
(50.4784°N, 14.9394°E)
Time: 04:02:44
(UTC+00:00)

Cosmos 1727 Rocket - Pass Details

Date: 26 October 2021
Orbit: 960 x 997 km, 82.9° (Epoch: 07 December)

Event Time Altitude Azimuth Distance (km) Brightness Sun altitude
Rises 02:59:55 0° 124° (ESE) 3,697 7.6 -26.1°
Reaches altitude 10° 03:04:12 10° 96° (E) 2,747 7.3 -25.4°
Maximum altitude 03:06:32 12° 74° (ENE) 2,580 7.2 -25.1°
Drops below altitude 10° 03:08:51 10° 52° (NE) 2,744 7.2 -24.7°
Sets 03:13:06 0° 24° (NNE) 3,689 7.5 -24.0°
